This is the latest recevied weather packets stored in our database for station/object W4FXD. If no packets are shown the sender has not sent any weather packets the latest 10 day(s).
| Time | Temp. | Humidity | Pressure | Rain* | Wind** | Luminosity | Snow |
|---|---|---|---|---|---|---|---|
| 1777940851 | 21.67° C | 55% | 1012.8 hPa | 0 mm | - | 0 W/m² | - |
| 1777940548 | 21.67° C | 54% | 1012.8 hPa | 0 mm | - | 3 W/m² | - |
| 1777940245 | 21.67° C | 54% | 1012.9 hPa | 0 mm | - | 4 W/m² | - |
| 1777939943 | 21.67° C | 53% | 1012.7 hPa | 0 mm | - | 6 W/m² | - |
| 1777939640 | 21.67° C | 54% | 1012.9 hPa | 0 mm | - | 9 W/m² | - |
| 1777939338 | 22.22° C | 53% | 1012.9 hPa | 0 mm | - | 12 W/m² | - |
| 1777939034 | 22.22° C | 52% | 1012.9 hPa | 0 mm | - | 16 W/m² | - |
| 1777938730 | 22.22° C | 54% | 1012.9 hPa | 0 mm | - | 19 W/m² | - |
| 1777938428 | 22.22° C | 54% | 1012.8 hPa | 0 mm | - | 24 W/m² | - |
| 1777938125 | 22.22° C | 54% | 1012.8 hPa | 0 mm | - | 27 W/m² | - |
| 1777937820 | 22.22° C | 55% | 1012.9 hPa | 0 mm | - | 26 W/m² | - |
| 1777937516 | 22.78° C | 53% | 1013 hPa | 0 mm | - | 25 W/m² | - |
| 1777937214 | 22.78° C | 54% | 1012.8 hPa | 0 mm | - | 31 W/m² | - |
| 1777936911 | 22.78° C | 54% | 1012.6 hPa | 0 mm | - | 37 W/m² | - |
| 1777936608 | 22.78° C | 54% | 1012.7 hPa | 0 mm | - | 56 W/m² | - |
| 1777936304 | 22.78° C | 54% | 1012.7 hPa | 0 mm | - | 65 W/m² | - |
| 1777936000 | 22.78° C | 53% | 1012.4 hPa | 0 mm | - | 65 W/m² | - |
| 1777935699 | 22.78° C | 53% | 1012.7 hPa | 0 mm | - | 67 W/m² | - |
| 1777935397 | 22.78° C | 52% | 1012.8 hPa | 0 mm | - | 66 W/m² | - |
| 1777935093 | 22.78° C | 53% | 1012.7 hPa | 0 mm | - | 69 W/m² | - |
| 1777934790 | 22.78° C | 53% | 1012.6 hPa | 0 mm | - | 73 W/m² | - |
| 1777934487 | 22.78° C | 51% | 1012.8 hPa | 0 mm | - | 77 W/m² | - |
| 1777934184 | 22.78° C | 52% | 1012.6 hPa | 0 mm | - | 84 W/m² | - |
| 1777933880 | 22.78° C | 51% | 1012.7 hPa | 0 mm | - | 88 W/m² | - |
| 1777933577 | 22.78° C | 50% | 1012.7 hPa | 0 mm | - | 89 W/m² | - |
* Rain latest hour (hover to see other rain measurements)
** Current wind speed in m/s (hover to see current wind gust speed)